Time,TemperatureF,DewpointF,PressureIn,WindDirection,WindDirectionDegrees,WindSpeedMPH,WindSpeedGustMPH,Humidity,HourlyPrecipIn,Conditions,Clouds,dailyrainin,SolarRadiationWatts/m^2,SoftwareType,DateUTC
2013-04-25 00:03:00,64.0,60.0,-100.00,SW,227,1.0,3.0,87,0.00,,,0.00,0.000000,,2013-04-25 04:03:00,
2013-04-25 00:23:00,63.0,60.0,-100.00,SW,223,1.0,3.0,90,0.00,,,0.00,0.000000,,2013-04-25 04:23:00,
2013-04-25 00:33:00,63.0,60.0,-100.00,SW,223,1.0,3.0,90,0.00,,,0.00,0.000000,,2013-04-25 04:33:00,
2013-04-25 00:43:00,63.0,60.0,-100.00,SW,223,1.0,3.0,90,0.00,,,0.00,0.000000,,2013-04-25 04:43:00,
2013-04-25 00:52:00,63.0,60.0,-100.00,SW,223,1.0,3.0,90,0.00,,,0.00,0.000000,,2013-04-25 04:52:00,
2013-04-25 01:03:00,63.0,60.0,-100.00,SW,223,1.0,3.0,90,0.00,,,0.00,0.000000,,2013-04-25 05:03:00,
2013-04-25 01:32:00,63.0,61.0,-100.00,WSW,251,1.0,3.0,92,0.00,,,0.00,0.000000,,2013-04-25 05:32:00,
2013-04-25 01:42:00,63.0,61.0,-100.00,WSW,251,1.0,3.0,92,0.00,,,0.00,0.000000,,2013-04-25 05:42:00,
2013-04-25 01:52:00,63.0,61.0,-100.00,WSW,251,1.0,3.0,92,0.00,,,0.00,0.000000,,2013-04-25 05:52:00,
2013-04-25 02:02:00,63.0,61.0,-100.00,WSW,251,1.0,3.0,92,0.00,,,0.00,0.000000,,2013-04-25 06:02:00,
2013-04-25 02:32:00,62.0,60.0,-100.00,East,95,1.0,3.0,92,0.00,,,0.00,0.000000,,2013-04-25 06:32:00,
2013-04-25 02:42:00,62.0,60.0,-100.00,East,95,1.0,3.0,92,0.00,,,0.00,0.000000,,2013-04-25 06:42:00,
2013-04-25 02:52:00,62.0,60.0,-100.00,East,95,1.0,3.0,92,0.00,,,0.00,0.000000,,2013-04-25 06:52:00,
2013-04-25 03:02:00,62.0,60.0,-100.00,East,95,1.0,3.0,92,0.00,,,0.00,0.000000,,2013-04-25 07:02:00,
2013-04-25 03:32:00,61.0,59.0,-100.00,ENE,62,0.0,2.0,93,0.00,,,0.00,0.000000,,2013-04-25 07:32:00,
2013-04-25 03:42:00,61.0,59.0,-100.00,ENE,62,0.0,2.0,93,0.00,,,0.00,0.000000,,2013-04-25 07:42:00,
2013-04-25 03:52:00,61.0,59.0,-100.00,ENE,62,0.0,2.0,93,0.00,,,0.00,0.000000,,2013-04-25 07:52:00,
2013-04-25 04:02:00,61.0,59.0,-100.00,ENE,62,0.0,2.0,93,0.00,,,0.00,0.000000,,2013-04-25 08:02:00,
2013-04-25 04:32:00,60.0,58.0,-100.00,SE,131,0.0,0.0,94,0.00,,,0.00,0.000000,,2013-04-25 08:32:00,
2013-04-25 04:42:00,60.0,58.0,-100.00,SE,131,0.0,0.0,94,0.00,,,0.00,0.000000,,2013-04-25 08:42:00,
2013-04-25 04:52:00,60.0,58.0,-100.00,SE,131,0.0,0.0,94,0.00,,,0.00,0.000000,,2013-04-25 08:52:00,
2013-04-25 05:01:00,60.0,58.0,-100.00,SE,131,0.0,0.0,94,0.00,,,0.00,0.000000,,2013-04-25 09:01:00,
2013-04-25 05:33:00,60.0,59.0,-100.00,SSE,157,0.0,1.0,95,0.00,,,0.00,0.000000,,2013-04-25 09:33:00,
2013-04-25 05:42:00,60.0,59.0,-100.00,SSE,157,0.0,1.0,95,0.00,,,0.00,0.000000,,2013-04-25 09:42:00,
2013-04-25 05:53:00,60.0,59.0,-100.00,SSE,157,0.0,1.0,95,0.00,,,0.00,0.000000,,2013-04-25 09:53:00,
2013-04-25 06:02:00,60.0,59.0,-100.00,SSE,157,0.0,1.0,95,0.00,,,0.00,0.000000,,2013-04-25 10:02:00,
2013-04-25 06:22:00,59.0,58.0,-100.00,SW,230,0.0,1.0,95,0.00,,,0.00,0.000000,,2013-04-25 10:22:00,
2013-04-25 06:33:00,59.0,58.0,-100.00,SW,230,0.0,1.0,95,0.00,,,0.00,0.000000,,2013-04-25 10:33:00,
2013-04-25 06:42:00,59.0,58.0,-100.00,SW,230,0.0,1.0,95,0.00,,,0.00,0.000000,,2013-04-25 10:42:00,
2013-04-25 06:53:00,59.0,58.0,-100.00,SW,230,0.0,1.0,95,0.00,,,0.00,0.000000,,2013-04-25 10:53:00,
2013-04-25 07:02:00,59.0,58.0,-100.00,SW,230,0.0,1.0,95,0.00,,,0.00,0.000000,,2013-04-25 11:02:00,
2013-04-25 07:22:00,59.0,58.0,-100.00,SW,221,1.0,1.0,95,0.00,,,0.00,2.000000,,2013-04-25 11:22:00,
2013-04-25 07:33:00,59.0,58.0,-100.00,SW,221,1.0,1.0,95,0.00,,,0.00,2.000000,,2013-04-25 11:33:00,
2013-04-25 07:42:00,59.0,58.0,-100.00,SW,221,1.0,1.0,95,0.00,,,0.00,2.000000,,2013-04-25 11:42:00,
2013-04-25 07:52:00,59.0,58.0,-100.00,SW,221,1.0,1.0,95,0.00,,,0.00,2.000000,,2013-04-25 11:52:00,
2013-04-25 08:01:00,59.0,58.0,-100.00,SW,221,1.0,1.0,95,0.00,,,0.00,2.000000,,2013-04-25 12:01:00,
2013-04-25 08:22:00,62.0,61.0,-100.00,West,274,1.0,2.0,95,0.00,,,0.00,50.000000,,2013-04-25 12:22:00,
2013-04-25 08:32:00,62.0,61.0,-100.00,West,274,1.0,2.0,95,0.00,,,0.00,50.000000,,2013-04-25 12:32:00,
2013-04-25 08:42:00,62.0,61.0,-100.00,West,274,1.0,2.0,95,0.00,,,0.00,50.000000,,2013-04-25 12:42:00,
2013-04-25 08:52:00,62.0,61.0,-100.00,West,274,1.0,2.0,95,0.00,,,0.00,50.000000,,2013-04-25 12:52:00,
2013-04-25 09:02:00,62.0,61.0,-100.00,West,274,1.0,2.0,95,0.00,,,0.00,50.000000,,2013-04-25 13:02:00,
2013-04-25 09:32:00,69.0,64.0,-100.00,West,263,2.0,4.0,83,0.00,,,0.00,160.000000,,2013-04-25 13:32:00,
2013-04-25 09:42:00,69.0,64.0,-100.00,West,263,2.0,4.0,83,0.00,,,0.00,160.000000,,2013-04-25 13:42:00,
2013-04-25 09:53:00,69.0,64.0,-100.00,West,263,2.0,4.0,83,0.00,,,0.00,160.000000,,2013-04-25 13:53:00,
2013-04-25 10:02:00,69.0,64.0,-100.00,West,263,2.0,4.0,83,0.00,,,0.00,160.000000,,2013-04-25 14:02:00,
2013-04-25 10:32:00,75.0,65.0,-100.00,WNW,294,4.0,8.0,72,0.00,,,0.00,459.000000,,2013-04-25 14:32:00,
2013-04-25 10:42:00,75.0,65.0,-100.00,WNW,294,4.0,8.0,72,0.00,,,0.00,459.000000,,2013-04-25 14:42:00,
2013-04-25 10:52:00,75.0,65.0,-100.00,WNW,294,4.0,8.0,72,0.00,,,0.00,459.000000,,2013-04-25 14:52:00,
2013-04-25 11:02:00,75.0,65.0,-100.00,WNW,294,4.0,8.0,72,0.00,,,0.00,459.000000,,2013-04-25 15:02:00,
2013-04-25 11:33:00,80.0,66.0,-100.00,WNW,289,3.0,7.0,62,0.00,,,0.00,687.000000,,2013-04-25 15:33:00,
2013-04-25 11:42:00,80.0,66.0,-100.00,WNW,289,3.0,7.0,62,0.00,,,0.00,687.000000,,2013-04-25 15:42:00,
2013-04-25 11:53:00,80.0,66.0,-100.00,WNW,289,3.0,7.0,62,0.00,,,0.00,687.000000,,2013-04-25 15:53:00,
2013-04-25 12:02:00,80.0,66.0,-100.00,WNW,289,3.0,7.0,62,0.00,,,0.00,687.000000,,2013-04-25 16:02:00,
2013-04-25 12:33:00,82.0,65.0,-100.00,NW,316,3.0,8.0,57,0.00,,,0.00,798.000000,,2013-04-25 16:33:00,
2013-04-25 12:43:00,82.0,65.0,-100.00,NW,316,3.0,8.0,57,0.00,,,0.00,798.000000,,2013-04-25 16:43:00,
2013-04-25 12:53:00,82.0,65.0,-100.00,NW,316,3.0,8.0,57,0.00,,,0.00,798.000000,,2013-04-25 16:53:00,
2013-04-25 13:02:00,82.0,65.0,-100.00,NW,316,3.0,8.0,57,0.00,,,0.00,798.000000,,2013-04-25 17:02:00,
2013-04-25 13:22:00,83.0,68.0,-100.00,WSW,251,4.0,10.0,60,0.00,,,0.00,648.000000,,2013-04-25 17:22:00,
2013-04-25 13:32:00,83.0,68.0,-100.00,WSW,251,4.0,10.0,60,0.00,,,0.00,648.000000,,2013-04-25 17:32:00,
2013-04-25 13:42:00,83.0,68.0,-100.00,WSW,251,4.0,10.0,60,0.00,,,0.00,648.000000,,2013-04-25 17:42:00,
2013-04-25 13:53:00,83.0,68.0,-100.00,WSW,251,4.0,10.0,60,0.00,,,0.00,648.000000,,2013-04-25 17:53:00,
2013-04-25 14:01:00,83.0,68.0,-100.00,WSW,251,4.0,10.0,60,0.00,,,0.00,648.000000,,2013-04-25 18:01:00,
2013-04-25 14:32:00,84.0,64.0,-100.00,WSW,256,6.0,11.0,51,0.00,,,0.00,752.000000,,2013-04-25 18:32:00,
2013-04-25 14:43:00,84.0,64.0,-100.00,WSW,256,6.0,11.0,51,0.00,,,0.00,752.000000,,2013-04-25 18:43:00,
2013-04-25 14:53:00,84.0,64.0,-100.00,WSW,256,6.0,11.0,51,0.00,,,0.00,752.000000,,2013-04-25 18:53:00,
2013-04-25 15:02:00,84.0,64.0,-100.00,WSW,256,6.0,11.0,51,0.00,,,0.00,752.000000,,2013-04-25 19:02:00,
2013-04-25 15:21:00,83.0,63.0,-100.00,WNW,282,5.0,12.0,51,0.00,,,0.00,731.000000,,2013-04-25 19:21:00,
2013-04-25 15:32:00,83.0,63.0,-100.00,WNW,282,5.0,12.0,51,0.00,,,0.00,731.000000,,2013-04-25 19:32:00,
2013-04-25 15:42:00,83.0,63.0,-100.00,WNW,282,5.0,12.0,51,0.00,,,0.00,731.000000,,2013-04-25 19:42:00,
2013-04-25 15:52:00,83.0,63.0,-100.00,WNW,282,5.0,12.0,51,0.00,,,0.00,731.000000,,2013-04-25 19:52:00,
2013-04-25 16:02:00,83.0,63.0,-100.00,WNW,282,5.0,12.0,51,0.00,,,0.00,731.000000,,2013-04-25 20:02:00,
2013-04-25 16:32:00,84.0,63.0,-100.00,WNW,288,5.0,13.0,49,0.00,,,0.00,648.000000,,2013-04-25 20:32:00,
2013-04-25 16:43:00,84.0,63.0,-100.00,WNW,288,5.0,13.0,49,0.00,,,0.00,648.000000,,2013-04-25 20:43:00,
2013-04-25 16:52:00,84.0,63.0,-100.00,WNW,288,5.0,13.0,49,0.00,,,0.00,648.000000,,2013-04-25 20:52:00,
2013-04-25 17:01:00,84.0,63.0,-100.00,WNW,288,5.0,13.0,49,0.00,,,0.00,648.000000,,2013-04-25 21:01:00,
2013-04-25 17:22:00,83.0,59.0,-100.00,WNW,295,3.0,10.0,45,0.00,,,0.00,572.000000,,2013-04-25 21:22:00,
2013-04-25 17:33:00,83.0,59.0,-100.00,WNW,295,3.0,10.0,45,0.00,,,0.00,572.000000,,2013-04-25 21:33:00,
2013-04-25 17:42:00,83.0,59.0,-100.00,WNW,295,3.0,10.0,45,0.00,,,0.00,572.000000,,2013-04-25 21:42:00,
2013-04-25 17:53:00,83.0,59.0,-100.00,WNW,295,3.0,10.0,45,0.00,,,0.00,572.000000,,2013-04-25 21:53:00,
2013-04-25 18:03:00,83.0,59.0,-100.00,WNW,295,3.0,10.0,45,0.00,,,0.00,572.000000,,2013-04-25 22:03:00,
2013-04-25 18:33:00,83.0,60.0,-100.00,West,268,4.0,9.0,46,0.00,,,0.00,320.000000,,2013-04-25 22:33:00,
2013-04-25 18:42:00,83.0,60.0,-100.00,West,268,4.0,9.0,46,0.00,,,0.00,320.000000,,2013-04-25 22:42:00,
2013-04-25 18:53:00,83.0,60.0,-100.00,West,268,4.0,9.0,46,0.00,,,0.00,320.000000,,2013-04-25 22:53:00,
2013-04-25 19:02:00,83.0,60.0,-100.00,West,268,4.0,9.0,46,0.00,,,0.00,320.000000,,2013-04-25 23:02:00,
2013-04-25 19:32:00,81.0,62.0,-100.00,West,274,4.0,10.0,53,0.00,,,0.00,158.000000,,2013-04-25 23:32:00,
2013-04-25 19:42:00,81.0,62.0,-100.00,West,274,4.0,10.0,53,0.00,,,0.00,158.000000,,2013-04-25 23:42:00,
2013-04-25 19:52:00,81.0,62.0,-100.00,West,274,4.0,10.0,53,0.00,,,0.00,158.000000,,2013-04-25 23:52:00,
2013-04-25 20:01:00,81.0,62.0,-100.00,West,274,4.0,10.0,53,0.00,,,0.00,158.000000,,2013-04-26 00:01:00,
2013-04-25 20:22:00,75.0,62.0,-100.00,SW,235,1.0,6.0,64,0.00,,,0.00,53.000000,,2013-04-26 00:22:00,
2013-04-25 20:32:00,75.0,62.0,-100.00,SW,235,1.0,6.0,64,0.00,,,0.00,53.000000,,2013-04-26 00:32:00,
2013-04-25 20:42:00,75.0,62.0,-100.00,SW,235,1.0,6.0,64,0.00,,,0.00,53.000000,,2013-04-26 00:42:00,
2013-04-25 20:52:00,75.0,62.0,-100.00,SW,235,1.0,6.0,64,0.00,,,0.00,53.000000,,2013-04-26 00:52:00,
2013-04-25 21:01:00,75.0,62.0,-100.00,SW,235,1.0,6.0,64,0.00,,,0.00,53.000000,,2013-04-26 01:01:00,
2013-04-25 21:22:00,69.0,64.0,-100.00,SSW,204,0.0,0.0,85,0.00,,,0.00,0.000000,,2013-04-26 01:22:00,
2013-04-25 21:32:00,69.0,64.0,-100.00,SSW,204,0.0,0.0,85,0.00,,,0.00,0.000000,,2013-04-26 01:32:00,
2013-04-25 21:42:00,69.0,64.0,-100.00,SSW,204,0.0,0.0,85,0.00,,,0.00,0.000000,,2013-04-26 01:42:00,
2013-04-25 21:52:00,69.0,64.0,-100.00,SSW,204,0.0,0.0,85,0.00,,,0.00,0.000000,,2013-04-26 01:52:00,
2013-04-25 22:02:00,69.0,64.0,-100.00,SSW,204,0.0,0.0,85,0.00,,,0.00,0.000000,,2013-04-26 02:02:00,
2013-04-25 22:32:00,66.0,62.0,-100.00,WSW,240,0.0,0.0,88,0.00,,,0.00,0.000000,,2013-04-26 02:32:00,
2013-04-25 22:42:00,66.0,62.0,-100.00,WSW,240,0.0,0.0,88,0.00,,,0.00,0.000000,,2013-04-26 02:42:00,
2013-04-25 22:52:00,66.0,62.0,-100.00,WSW,240,0.0,0.0,88,0.00,,,0.00,0.000000,,2013-04-26 02:52:00,
2013-04-25 23:01:00,66.0,62.0,-100.00,WSW,240,0.0,0.0,88,0.00,,,0.00,0.000000,,2013-04-26 03:01:00,
2013-04-25 23:22:00,64.0,62.0,-100.00,West,265,0.0,0.0,92,0.00,,,0.00,0.000000,,2013-04-26 03:22:00,
2013-04-25 23:33:00,64.0,62.0,-100.00,West,265,0.0,0.0,92,0.00,,,0.00,0.000000,,2013-04-26 03:33:00,
2013-04-25 23:43:00,64.0,62.0,-100.00,West,265,0.0,0.0,92,0.00,,,0.00,0.000000,,2013-04-26 03:43:00,
2013-04-25 23:53:00,64.0,62.0,-100.00,West,265,0.0,0.0,92,0.00,,,0.00,0.000000,,2013-04-26 03:53:00,